Location: Newark
(40.7360°N, 74.1730°W)
Time: 10:31:37
(UTC-04:00)

Amateur Radio Satellites - All Passes

Search period start: 19 April 2014 10:01
Search period end: 20 April 2014 10:01
Location: Newark, 40.7360°N, 74.1730°W

Satellite Date Start Highest point End Downlink Frequencies (MHz)
Time Altitude Azimuth
KITSAT 1 19 Apr 10:01:40 10:07:05 19° 31° (NNE) 10:12:28 435.175 FM
PANSAT 19 Apr 10:19:16 10:21:06 13° 177° (S) 10:22:57 not established
PCSat 19 Apr 10:26:14 10:31:39 72° 244° (WSW) 10:37:01 145.825 MHz
HO-68 19 Apr 10:37:17 10:44:29 79° 288° (WNW) 10:51:39 435.675 MHz FM
RS-15 19 Apr 10:37:48 10:46:18 24° 337° (NNW) 10:54:44 29.354 - 29.394 USB, Beacon 29.352 USB
Saudisat 1A 19 Apr 10:54:53 10:59:00 38° 116° (ESE) 11:03:09 436.775 MHz
FUNcube-1 19 Apr 11:03:37 11:07:34 36° 98° (E) 11:11:34 145.950 - 145.970 MHz USB
Oscar 11 19 Apr 11:14:17 11:18:32 51° 287° (WNW) 11:22:45 145.825 FM, Beacon 2401.500 USB
Sapphire 19 Apr 11:25:24 11:29:42 24° 253° (WSW) 11:33:59 437.095 MHz 1200 baud AX-25 AFSK
KITSAT 1 19 Apr 11:56:14 12:04:17 63° 55° (NE) 12:12:15 435.175 FM
PANSAT 19 Apr 11:59:22 12:00:34 11° 190° (S) 12:01:46 not established
HO-68 19 Apr 12:27:05 12:31:04 16° 307° (NW) 12:35:03 435.675 MHz FM
Oscar 19 19 Apr 12:34:42 12:38:18 20° 63° (ENE) 12:41:56 437.125 CW, 437.150 USB
Saudisat 1A 19 Apr 12:34:58 12:38:42 26° 313° (NW) 12:42:27 436.775 MHz
FUNcube-1 19 Apr 12:40:42 12:43:45 20° 293° (WNW) 12:46:51 145.950 - 145.970 MHz USB
Oscar 16 19 Apr 12:42:22 12:46:27 25° 65° (ENE) 12:50:34 437.025 USB, Beacon 2401.1428
RS-15 19 Apr 12:56:20 13:04:07 21° 14° (NNE) 13:11:54 29.354 - 29.394 USB, Beacon 29.352 USB
Uribyol 2 19 Apr 13:17:06 13:21:24 27° 66° (ENE) 13:25:42 436.500 FM
Gurwin Techsat 1B 19 Apr 13:50:07 13:53:29 17° 62° (ENE) 13:56:51 435.225 FM
KITSAT 1 19 Apr 13:52:27 13:59:07 29° 254° (WSW) 14:05:46 435.175 FM
AO-27 19 Apr 13:56:16 14:01:22 61° 73° (ENE) 14:06:29 436.795 MHz FM
ITAMSAT 1 19 Apr 14:06:56 14:12:06 75° 74° (ENE) 14:17:17 435.822 SSB
Oscar 19 19 Apr 14:12:14 14:17:14 53° 260° (W) 14:22:17 437.125 CW, 437.150 USB
AO-Echo 19 Apr 14:14:50 14:20:03 71° 74° (ENE) 14:25:10 ?
Oscar 16 19 Apr 14:20:45 14:25:34 41° 262° (W) 14:30:26 437.025 USB, Beacon 2401.1428
TMSAT-1 19 Apr 14:36:50 14:41:28 32° 67° (ENE) 14:46:06 436.925 FM
Uosat F 19 Apr 14:37:12 14:38:58 12° 59° (ENE) 14:40:44 435.120 FM
Uribyol 2 19 Apr 14:55:59 15:00:43 36° 262° (W) 15:05:28 436.500 FM
AO-7 19 Apr 14:59:22 15:05:55 27° 55° (NE) 15:12:28 29.400 - 29.500 MHz
RS-15 19 Apr 15:09:34 15:20:05 49° 46° (NE) 15:30:47 29.354 - 29.394 USB, Beacon 29.352 USB
SO-50 19 Apr 15:11:18 15:15:13 31° 114° (ESE) 15:19:10 436.795 FM
JAS-1B 19 Apr 15:18:09 15:25:48 48° 70° (ENE) 15:32:15 435.800 - 435.900 CW/SSB
OPAL 19 Apr 15:24:56 15:29:57 46° 101° (ESE) 15:34:56 ?
Gurwin Techsat 1B 19 Apr 15:27:39 15:32:54 64° 259° (WSW) 15:38:12 435.225 FM
AO-27 19 Apr 15:38:10 15:41:17 16° 269° (W) 15:44:25 436.795 MHz FM
ISS 19 Apr 15:48:38 15:51:59 89° 324° (NW) 15:55:21 145.800 FM
ITAMSAT 1 19 Apr 15:49:57 15:52:08 13° 270° (W) 15:54:20 435.822 SSB
AO-Echo 19 Apr 15:56:40 15:59:16 14° 270° (W) 16:01:50 ?
Uosat F 19 Apr 16:11:58 16:17:01 88° 256° (WSW) 16:22:04 435.120 FM
TMSAT-1 19 Apr 16:16:38 16:21:19 32° 264° (W) 16:26:02 436.925 FM
AO-7 19 Apr 16:49:44 16:57:59 72° 254° (WSW) 17:06:17 29.400 - 29.500 MHz
SO-50 19 Apr 16:51:47 16:55:45 30° 312° (NW) 16:59:45 436.795 FM
OPAL 19 Apr 17:04:28 17:08:31 23° 298° (WNW) 17:12:34 ?
JAS-1B 19 Apr 17:09:14 17:16:27 33° 262° (W) 17:22:41 435.800 - 435.900 CW/SSB
RS-15 19 Apr 17:22:06 17:32:31 52° 248° (WSW) 17:43:15 29.354 - 29.394 USB, Beacon 29.352 USB
Hamsat 19 Apr 17:22:39 17:25:29 18° 66° (ENE) 17:28:19 145.90 MHz
ISS 19 Apr 17:26:36 17:29:07 19° 342° (NNW) 17:31:38 145.800 FM
UOSAT-12 19 Apr 17:33:43 17:38:03 46° 117° (ESE) 17:42:30 437.025 FM, 437.400 FM
JAS-2 19 Apr 18:40:17 18:45:47 44° 71° (ENE) 18:50:50 435.800 - 435.900 CW/SSB, 435.910 FM
SO-67 19 Apr 18:44:11 18:46:56 22° 70° (ENE) 18:49:41 435.3500 MHz FM
AO-7 19 Apr 18:49:06 18:52:06 12° 273° (W) 18:55:08 29.400 - 29.500 MHz
Hamsat 19 Apr 18:57:14 19:01:10 39° 262° (W) 19:05:09 145.90 MHz
ISS 19 Apr 19:05:13 19:06:51 13° 2° (N) 19:08:30 145.800 FM
UOSAT-12 19 Apr 19:14:46 19:18:26 23° 315° (NW) 19:22:10 437.025 FM, 437.400 FM
HO-68 19 Apr 19:21:42 19:25:30 15° 52° (NE) 19:29:17 435.675 MHz FM
Saudisat 1A 19 Apr 19:21:59 19:25:54 30° 48° (NE) 19:29:46 436.775 MHz
STRAND 1 19 Apr 19:41:48 19:46:55 78° 103° (ESE) 19:52:00 ?
SO-67 19 Apr 20:17:23 20:20:01 20° 266° (W) 20:22:40 435.3500 MHz FM
JAS-2 19 Apr 20:26:26 20:31:02 24° 265° (W) 20:35:20 435.800 - 435.900 CW/SSB, 435.910 FM
Oscar 11 19 Apr 20:36:05 20:37:30 11° 62° (ENE) 20:38:54 145.825 FM, Beacon 2401.500 USB
ISS 19 Apr 20:41:45 20:44:32 23° 22° (NNE) 20:47:18 145.800 FM
Saudisat 1A 19 Apr 21:01:37 21:05:28 30° 246° (WSW) 21:09:15 436.775 MHz
HO-68 19 Apr 21:04:56 21:12:02 77° 71° (ENE) 21:19:12 435.675 MHz FM
STRAND 1 19 Apr 21:23:00 21:25:26 14° 300° (WNW) 21:27:52 ?
FUNcube-1 19 Apr 22:00:28 22:04:04 28° 70° (ENE) 22:07:39 145.950 - 145.970 MHz USB
Oscar 11 19 Apr 22:08:49 22:13:06 69° 259° (WSW) 22:17:25 145.825 FM, Beacon 2401.500 USB
MaSat-1 19 Apr 22:14:59 22:17:38 32° 298° (WNW) 22:20:02 437.345 MHz
ISS 19 Apr 22:18:11 22:21:30 60° 220° (SW) 22:24:48 145.800 FM
HO-68 19 Apr 22:55:38 23:00:25 19° 269° (W) 23:05:14 435.675 MHz FM
PCSat 19 Apr 23:27:09 23:30:05 15° 104° (ESE) 23:33:02 145.825 MHz
FUNcube-1 19 Apr 23:37:09 23:40:29 23° 265° (W) 23:43:49 145.950 - 145.970 MHz USB
SO-50 19 Apr 23:42:49 23:46:53 29° 48° (NE) 23:51:00 436.795 FM
Sapphire 20 Apr 00:22:56 00:28:02 45° 112° (ESE) 00:33:10 437.095 MHz 1200 baud AX-25 AFSK
OPAL 20 Apr 01:05:41 01:06:39 11° 55° (NE) 01:07:37 ?
PCSat 20 Apr 01:07:27 01:12:50 73° 300° (WNW) 01:18:16 145.825 MHz
SO-50 20 Apr 01:23:15 01:27:29 35° 245° (WSW) 01:31:45 436.795 FM
Oscar 10/S400 20 Apr 01:48:18 02:03:45 23° 130° (SE) 02:34:54 145.825 - 145.975 CW/USB, Beacon 145.810 USB
UOSAT-12 20 Apr 02:03:31 02:07:58 39° 51° (NE) 02:12:22 437.025 FM, 437.400 FM
Sapphire 20 Apr 02:07:00 02:11:37 28° 310° (NW) 02:16:16 437.095 MHz 1200 baud AX-25 AFSK
AO-27 20 Apr 02:10:23 02:14:22 22° 94° (E) 02:18:19 436.795 MHz FM
ITAMSAT 1 20 Apr 02:20:41 02:25:02 27° 95° (E) 02:29:23 435.822 SSB
AO-Echo 20 Apr 02:23:31 02:27:09 21° 93° (E) 02:30:43 ?
Oscar 19 20 Apr 02:23:58 02:29:06 57° 101° (E) 02:34:12 437.125 CW, 437.150 USB
KITSAT 1 20 Apr 02:24:09 02:31:42 45° 110° (ESE) 02:39:16 435.175 FM
Oscar 16 20 Apr 02:32:17 02:37:30 73° 102° (ESE) 02:42:41 437.025 USB, Beacon 2401.1428
OPAL 20 Apr 02:39:38 02:44:39 79° 73° (ENE) 02:49:46 ?
PCSat 20 Apr 02:54:34 02:57:14 14° 321° (NW) 02:59:55 145.825 MHz
TMSAT-1 20 Apr 02:54:42 02:56:47 12° 89° (E) 02:58:53 436.925 FM
Uribyol 2 20 Apr 03:08:24 03:13:36 82° 104° (ESE) 03:18:48 436.500 FM
UOSAT-12 20 Apr 03:44:04 03:47:55 25° 248° (WSW) 03:51:44 437.025 FM, 437.400 FM
Gurwin Techsat 1B 20 Apr 03:44:10 03:49:22 53° 100° (E) 03:54:32 435.225 FM
AO-27 20 Apr 03:49:09 03:54:03 44° 290° (WNW) 03:58:56 436.795 MHz FM
ITAMSAT 1 20 Apr 03:59:53 04:04:35 36° 292° (WNW) 04:09:16 435.822 SSB
AO-Echo 20 Apr 04:01:40 04:06:04 38° 290° (WNW) 04:10:24 ?
Oscar 19 20 Apr 04:04:27 04:07:59 19° 297° (WNW) 04:11:31 437.125 CW, 437.150 USB
Oscar 16 20 Apr 04:13:23 04:16:14 15° 299° (WNW) 04:19:04 437.025 USB, Beacon 2401.1428
KITSAT 1 20 Apr 04:19:23 04:27:05 45° 310° (NW) 04:34:49 435.175 FM
Uosat F 20 Apr 04:20:29 04:24:49 29° 96° (E) 04:29:07 435.120 FM
OPAL 20 Apr 04:22:27 04:24:08 12° 269° (W) 04:25:48 ?
TMSAT-1 20 Apr 04:31:59 04:37:18 79° 285° (WNW) 04:42:35 436.925 FM
Uribyol 2 20 Apr 04:50:01 04:52:23 13° 301° (WNW) 04:54:45 436.500 FM
AO-7 20 Apr 04:51:46 04:59:30 41° 99° (E) 05:07:11 29.400 - 29.500 MHz
JAS-1B 20 Apr 04:53:23 04:59:04 71° 103° (ESE) 05:04:59 435.800 - 435.900 CW/SSB
STRAND 1 20 Apr 05:21:31 05:24:05 14° 60° (ENE) 05:26:38 ?
Gurwin Techsat 1B 20 Apr 05:25:08 05:28:56 20° 297° (WNW) 05:32:43 435.225 FM
RS-15 20 Apr 05:34:58 05:43:50 28° 103° (ESE) 05:52:27 29.354 - 29.394 USB, Beacon 29.352 USB
Uosat F 20 Apr 05:59:10 06:03:35 32° 292° (WNW) 06:07:58 435.120 FM
TMSAT-1 20 Apr 06:15:19 06:16:19 11° 303° (WNW) 06:17:20 436.925 FM
KITSAT 1 20 Apr 06:20:39 06:24:56 15° 336° (NNW) 06:29:12 435.175 FM
MaSat-1 20 Apr 06:37:54 06:40:33 29° 62° (ENE) 06:43:36 437.345 MHz
Hamsat 20 Apr 06:43:11 06:47:13 36° 97° (E) 06:51:14 145.90 MHz
AO-7 20 Apr 06:44:31 06:52:19 47° 297° (WNW) 07:00:06 29.400 - 29.500 MHz
JAS-1B 20 Apr 06:46:00 06:49:09 15° 301° (WNW) 06:52:20 435.800 - 435.900 CW/SSB
STRAND 1 20 Apr 06:57:31 07:02:37 76° 257° (WSW) 07:07:45 ?
JAS-2 20 Apr 07:33:08 07:38:13 39° 99° (E) 07:43:46 435.800 - 435.900 CW/SSB, 435.910 FM
SO-67 20 Apr 07:41:32 07:44:35 27° 96° (E) 07:47:35 435.3500 MHz FM
RS-15 20 Apr 07:43:41 07:55:03 79° 304° (WNW) 08:06:05 29.354 - 29.394 USB, Beacon 29.352 USB
PCSat 20 Apr 08:13:45 08:16:53 15° 41° (NE) 08:20:01 145.825 MHz
MaSat-1 20 Apr 08:17:12 08:18:50 13° 251° (WSW) 08:20:35 437.345 MHz
Hamsat 20 Apr 08:19:45 08:22:57 20° 293° (WNW) 08:26:09 145.90 MHz
KITSAT 1 20 Apr 08:23:23 08:24:48 10° 8° (N) 08:26:12 435.175 FM
HO-68 20 Apr 08:35:46 08:38:55 13° 88° (E) 08:42:04 435.675 MHz FM
AO-7 20 Apr 08:42:20 08:43:00 10° 319° (NW) 08:43:40 29.400 - 29.500 MHz
Sapphire 20 Apr 09:11:07 09:16:05 35° 52° (NE) 09:21:01 437.095 MHz 1200 baud AX-25 AFSK
SO-67 20 Apr 09:15:14 09:17:31 17° 292° (WNW) 09:19:48 435.3500 MHz FM
JAS-2 20 Apr 09:18:41 09:23:12 28° 293° (WNW) 09:28:03 435.800 - 435.900 CW/SSB, 435.910 FM
PANSAT 20 Apr 09:54:45 09:56:38 13° 177° (S) 09:58:30 not established
